TimeGMT,TemperatureF,Dew PointF,Humidity,Sea Level PressureIn,VisibilityMPH,Wind Direction,Wind SpeedMPH,Gust SpeedMPH,PrecipitationIn,Events,Conditions,WindDirDegrees,DateUTC
12:50 AM,44.6,41.0,87,29.98,6.2,NE,16.1,-,N/A,,Mostly Cloudy,40,2012-11-28 00:50:00
1:50 AM,42.8,39.2,87,29.98,6.2,NE,10.4,-,N/A,,Mostly Cloudy,40,2012-11-28 01:50:00
2:50 AM,41,38,85,30.01,16,NE,11.5,,,,Mostly Cloudy,40,2012-11-28 02:50:00
2:50 AM,41.0,37.4,87,29.98,6.2,NE,11.5,-,N/A,,Mostly Cloudy,40,2012-11-28 02:50:00
3:50 AM,42.8,39.2,87,29.98,6.2,NE,11.5,-,N/A,,Scattered Clouds,40,2012-11-28 03:50:00
4:50 AM,41.0,37.4,87,30.01,6.2,NE,10.4,-,N/A,,Partly Cloudy,50,2012-11-28 04:50:00
5:50 AM,38,36,90,30.02,16,ENE,6.9,,,,Scattered Clouds,60,2012-11-28 05:50:00
5:50 AM,39.2,35.6,87,30.01,6.2,ENE,6.9,-,N/A,,Partly Cloudy,60,2012-11-28 05:50:00
6:50 AM,41.0,37.4,87,30.01,6.2,NE,11.5,-,N/A,,Scattered Clouds,40,2012-11-28 06:50:00
7:50 AM,39.2,37.4,93,30.01,6.2,NE,9.2,-,N/A,,Scattered Clouds,40,2012-11-28 07:50:00
8:50 AM,44,39,78,30.05,16,NE,5.8,,,,Partly Cloudy,40,2012-11-28 08:50:00
8:50 AM,42.8,39.2,87,30.04,6.2,NE,5.8,-,N/A,,Scattered Clouds,40,2012-11-28 08:50:00
9:50 AM,46.4,41.0,81,30.04,6.2,NE,13.8,26.5,N/A,,Partly Cloudy,40,2012-11-28 09:50:00
10:50 AM,48.2,42.8,82,30.04,6.2,NE,12.7,-,N/A,,Scattered Clouds,50,2012-11-28 10:50:00
11:50 AM,46,40,74,30.06,16,NNE,18.4,,,,Partly Cloudy,30,2012-11-28 11:50:00
11:50 AM,46.4,41.0,81,30.04,6.2,NNE,18.4,29.9,N/A,,Scattered Clouds,30,2012-11-28 11:50:00
12:50 PM,46.4,41.0,81,30.04,6.2,NNE,17.3,28.8,N/A,,Partly Cloudy,30,2012-11-28 12:50:00
1:50 PM,46.4,41.0,81,30.04,6.2,NE,16.1,-,N/A,,Partly Cloudy,40,2012-11-28 13:50:00
2:50 PM,46,40,74,30.05,12,NE,12.7,,,,Partly Cloudy,40,2012-11-28 14:50:00
2:50 PM,46.4,41.0,81,30.04,6.2,NE,12.7,-,N/A,,Partly Cloudy,40,2012-11-28 14:50:00
3:50 PM,44.6,39.2,81,30.04,6.2,NE,9.2,-,N/A,,Partly Cloudy,40,2012-11-28 15:50:00
4:50 PM,42.8,37.4,81,30.04,6.2,NNE,12.7,-,N/A,,Partly Cloudy,30,2012-11-28 16:50:00
5:50 PM,42,37,78,30.08,12,NNE,13.8,,,,Partly Cloudy,30,2012-11-28 17:50:00
5:50 PM,42.8,37.4,81,30.06,6.2,NNE,13.8,-,N/A,,Scattered Clouds,30,2012-11-28 17:50:00
6:50 PM,41.0,37.4,87,30.06,6.2,NNE,12.7,-,N/A,,Partly Cloudy,30,2012-11-28 18:50:00
7:50 PM,41.0,37.4,87,30.06,6.2,NNE,8.1,-,N/A,,Partly Cloudy,30,2012-11-28 19:50:00
8:50 PM,40,37,83,30.09,12,NE,9.2,,,,Scattered Clouds,40,2012-11-28 20:50:00
8:50 PM,39.2,37.4,93,30.06,6.2,NE,9.2,-,N/A,,Partly Cloudy,40,2012-11-28 20:50:00
9:50 PM,39.2,37.4,93,30.06,6.2,NNE,8.1,-,N/A,,Partly Cloudy,30,2012-11-28 21:50:00
10:50 PM,39.2,37.4,93,30.06,6.2,NNE,11.5,-,N/A,,Partly Cloudy,30,2012-11-28 22:50:00
11:50 PM,41,38,84,30.08,12,ENE,8.1,,,,Partly Cloudy,60,2012-11-28 23:50:00
11:50 PM,41.0,37.4,87,30.06,6.2,ENE,8.1,-,N/A,,Scattered Clouds,60,2012-11-28 23:50:00